Wind_Speed
14 14 13 13 13 12 12 11 11 10 11 11 12 12 13 13 13 13 14 15 15 15 16 17 17 18 19 19 19 19 20 20 19 19 19 20 21 21 21 22 23 23 23
15 14 14 13 14 13 12 13 13 13 13 13 13 13 13 14 14 15 15 15 16 17 17 18 18 19 19 19 20 20 21 21 21 21 21 21 22 22 23 23 24 24 24
15 14 14 14 14 13 13 14 14 14 15 15 14 14 14 15 15 15 16 16 17 17 18 19 19 19 20 20 20 21 21 22 21 21 22 22 23 23 24 24 25 25 25
16 15 15 15 14 14 14 15 15 15 15 16 15 15 15 16 16 16 16 17 17 18 18 19 19 19 20 20 20 21 21 21 22 22 23 24 24 25 25 25 25 25 25
16 16 15 15 16 16 15 16 16 17 16 16 15 15 16 16 17 17 17 17 18 18 19 20 21 21 21 21 21 21 22 22 23 23 24 25 25 26 26 26 25 25 26
17 17 17 17 17 17 17 17 17 17 17 17 17 18 18 18 19 19 19 19 19 19 20 20 21 21 21 21 21 22 22 23 24 24 25 25 25 26 26 25 26 26 27
19 19 19 19 19 19 19 19 19 19 20 20 20 20 20 20 21 21 21 21 21 21 21 21 22 22 22 22 22 22 23 24 24 25 26 26 27 27 27 27 28 29 29
21 21 21 21 21 21 21 22 22 22 22 22 22 22 21 21 21 22 22 22 22 22 22 23 23 23 23 23 24 24 25 25 26 27 27 28 28 29 30 30 31 31 31
22 22 22 23 23 23 23 24 24 24 24 23 22 23 22 22 22 22 22 22 23 23 24 24 24 24 24 25 26 26 27 28 28 28 29 29 30 31 31 32 32 33 33
23 23 24 24 24 25 24 24 23 24 23 23 22 23 23 23 23 24 24 24 24 24 24 24 25 26 26 26 26 26 27 28 29 30 31 31 32 32 33 33 34 34 34
25 25 25 25 25 25 24 24 23 23 23 23 23 24 24 24 24 25 25 24 24 24 24 25 25 26 27 27 27 28 29 29 30 31 31 32 32 33 33 34 34 34 34
27 26 27 26 26 25 26 25 24 24 24 25 25 25 25 25 25 25 26 26 26 26 26 26 27 27 28 28 29 30 30 31 31 31 32 32 33 34 34 35 35 35 36
28 28 28 28 27 27 26 26 26 26 26 26 26 26 26 26 26 27 27 27 27 27 27 28 29 30 30 30 31 32 32 32 32 33 33 34 34 35 35 36 36 36 36
31 31 30 30 29 29 28 28 28 28 28 27 27 27 27 27 28 28 28 28 29 29 29 30 31 31 31 32 32 33 33 34 34 34 35 35 35 36 36 36 36 36 36
32 32 33 32 31 30 30 31 30 29 28 29 29 29 29 29 30 30 30 31 31 32 32 31 32 32 33 33 34 34 34 35 35 36 36 36 36 36 36 35 35 35 35
34 34 34 33 32 32 32 32 32 31 30 30 31 31 32 32 32 33 33 32 33 33 33 33 34 34 34 35 35 35 36 36 37 37 37 37 36 36 36 35 35 34 34
35 35 35 34 34 34 34 33 33 33 32 31 31 32 33 33 34 34 34 35 35 35 35 35 35 35 36 36 36 37 37 37 37 37 37 37 37 36 36 35 35 35 34
36 36 35 35 35 36 36 35 35 34 32 32 33 33 34 34 34 35 35 36 36 36 36 36 36 36 37 37 37 37 37 37 37 37 37 37 36 36 36 36 35 35 34
36 36 36 37 36 36 35 35 35 34 34 34 35 35 35 35 35 35 36 36 36 36 36 36 37 37 37 37 37 37 37 37 38 38 37 37 36 36 37 36 35 35 34
37 37 38 38 37 37 36 35 35 35 35 35 36 36 36 36 35 35 35 35 36 36 36 37 37 38 38 38 38 38 38 38 38 37 37 36 36 36 36 36 35 35 35
37 38 38 37 37 37 36 36 36 36 35 35 36 36 36 36 36 36 36 36 36 36 37 37 38 38 38 38 38 38 38 38 37 37 37 36 36 36 36 36 36 35 35
36 37 37 37 36 36 36 36 36 36 35 36 36 36 37 37 37 37 37 37 37 37 37 38 38 38 39 39 39 39 38 37 37 37 37 37 37 37 37 36 36 34 34
36 36 36 37 37 37 37 37 37 37 37 37 37 37 37 37 38 38 38 38 38 38 38 38 38 38 39 39 38 38 37 37 37 36 36 36 37 37 36 35 34 33 33
36 36 37 37 38 38 37 37 37 37 38 38 38 38 38 38 38 39 39 39 38 38 38 38 39 39 38 38 37 36 37 37 36 36 36 35 35 35 35 34 33 33 33
36 36 37 37 37 37 37 37 38 38 38 38 38 38 38 38 38 37 38 38 37 38 38 38 38 37 37 36 37 37 37 37 36 36 36 35 35 34 34 33 32 32 32
35 36 36 36 36 37 37 37 37 37 37 37 37 36 36 36 36 36 36 36 36 37 37 36 36 36 36 36 36 36 36 36 35 35 35 35 35 34 33 33 32 32 31
Wind_Direction
332 331 329 327 323 318 318 317 312 307 304 300 302 300 297 297 297 295 292 289 289 291 292 291 291 291 291 291 290 290 291 290 290 291 293 294 294 293 294 293 293 294 296
331 329 328 326 326 322 319 317 315 312 308 304 299 301 299 299 298 295 293 292 290 291 292 293 293 293 292 293 292 291 290 291 291 290 292 294 293 293 293 293 293 294 295
330 325 323 323 325 324 319 317 316 314 311 308 306 305 303 302 301 297 294 292 291 292 294 295 294 293 292 292 292 291 290 290 290 290 291 293 293 294 295 294 294 294 294
325 323 319 319 320 321 319 319 316 313 314 313 313 310 306 303 302 300 296 293 291 292 295 295 295 293 293 292 292 292 292 292 291 291 292 293 295 295 295 295 294 294 294
321 320 319 314 313 316 315 314 314 313 315 315 314 312 308 304 303 302 300 298 296 296 296 296 294 292 293 293 293 293 294 293 293 293 293 294 295 295 295 295 295 296 296
317 317 317 314 312 311 310 309 309 311 312 311 311 309 306 304 302 300 299 299 299 298 298 297 296 294 294 294 295 296 296 295 294 294 294 295 296 296 295 296 296 296 296
310 310 310 309 310 309 307 307 307 307 308 308 308 308 306 303 302 299 297 297 296 296 296 295 295 294 294 295 296 297 297 296 296 295 295 295 295 295 295 295 296 296 296
305 305 306 306 306 306 305 306 305 304 304 304 305 305 303 302 301 298 296 296 297 296 295 295 294 293 294 294 294 294 295 295 296 295 295 295 296 296 296 295 295 295 295
301 301 303 303 303 302 303 304 304 303 303 302 301 302 302 302 302 300 298 296 297 296 295 295 295 294 294 294 293 293 293 294 295 296 296 296 296 296 297 296 295 295 295
298 299 301 303 302 302 301 302 303 302 303 302 300 300 300 299 300 301 300 298 298 298 297 296 294 293 293 293 294 295 295 295 295 295 295 296 295 295 296 296 296 295 295
295 296 299 302 303 302 301 300 300 301 303 301 300 300 299 298 298 299 299 299 298 298 297 296 295 295 295 296 296 295 296 296 296 296 296 296 296 296 296 296 296 295 295
290 292 294 296 298 300 300 299 300 301 301 301 300 300 299 299 298 299 300 300 299 298 298 297 296 296 297 297 296 297 298 299 299 298 297 297 298 297 296 295 295 295 294
285 287 290 292 294 298 300 299 300 301 300 299 300 301 302 302 301 301 301 302 301 300 300 299 299 299 298 297 297 298 298 299 299 298 298 298 298 298 297 296 296 295 294
282 284 286 288 292 296 297 296 297 298 298 298 299 299 300 301 302 302 301 300 300 301 299 300 301 301 301 299 298 298 298 299 299 299 299 298 298 298 298 298 297 296 295
279 281 284 286 288 293 295 295 295 296 297 297 297 298 298 299 299 300 300 300 300 300 300 300 300 300 300 300 299 298 298 299 299 299 299 299 299 298 298 298 298 297 296
279 281 283 286 287 289 292 293 294 294 294 295 296 296 297 297 297 297 298 298 299 299 299 299 300 299 299 299 299 299 299 299 299 299 299 299 299 299 299 298 297 297 296
278 281 283 283 284 286 288 290 292 293 292 293 295 296 297 297 297 297 297 297 297 298 298 298 299 299 299 299 299 299 299 299 299 299 298 299 299 299 298 298 298 297 297
278 279 281 282 283 285 287 289 291 291 290 291 292 294 296 297 297 296 296 296 296 297 297 298 299 299 299 299 299 299 299 299 298 299 299 299 299 298 298 298 298 297 296
278 279 280 282 283 284 285 287 289 290 291 291 292 292 294 295 296 296 296 296 297 297 298 298 299 299 300 300 299 299 298 298 298 299 299 299 299 298 298 298 297 296 295
277 279 281 281 282 283 283 285 288 289 290 291 292 293 294 295 294 294 294 295 296 297 298 298 298 299 300 300 299 298 298 298 298 298 298 299 299 299 299 299 298 296 295
277 279 280 282 282 282 283 285 287 288 289 291 292 293 293 294 294 294 296 296 296 297 297 298 298 298 298 298 298 298 298 298 298 298 298 298 298 299 299 299 299 297 296
276 278 279 281 283 282 284 286 286 287 289 291 292 293 292 292 292 293 294 294 295 297 297 297 297 297 297 297 297 297 298 298 299 299 298 298 297 297 298 298 298 297 296
279 280 280 282 282 283 284 286 287 288 289 291 292 292 292 291 291 292 293 293 295 296 297 297 297 297 297 297 297 296 297 298 299 298 298 298 298 297 296 297 296 296 297
278 280 282 282 283 285 285 285 287 287 289 290 290 291 291 291 291 292 293 294 295 296 296 297 297 297 297 297 296 297 298 298 298 297 297 297 297 297 297 296 296 296 297
278 279 280 282 283 284 285 286 287 287 288 289 290 290 291 292 292 293 294 295 296 296 297 297 297 297 297 296 295 296 297 297 297 297 297 296 296 297 297 296 295 295 296
278 279 281 282 283 283 284 286 287 288 288 289 290 290 291 292 293 294 295 296 296 297 298 298 298 298 297 297 296 296 296 296 296 295 295 295 296 297 297 296 295 295 296
Height
5898 5896 5895 5894 5893 5891 5890 5889 5888 5888 5887 5886 5885 5884 5883 5882 5881 5880 5880 5879 5879 5878 5877 5876 5875 5874 5873 5872 5871 5870 5869 5868 5867 5866 5865 5864 5862 5861 5860 5858 5857 5856 5854
5896 5894 5893 5892 5891 5890 5889 5888 5886 5885 5884 5883 5882 5881 5880 5879 5878 5877 5876 5876 5875 5874 5873 5872 5871 5870 5869 5868 5866 5865 5864 5863 5862 5861 5860 5859 5857 5856 5854 5853 5851 5849 5848
5894 5893 5891 5890 5889 5888 5886 5885 5884 5883 5881 5880 5878 5878 5876 5875 5874 5873 5872 5872 5871 5870 5869 5868 5866 5865 5864 5863 5861 5860 5859 5858 5857 5856 5854 5853 5851 5850 5848 5846 5845 5843 5841
5893 5891 5890 5889 5887 5886 5885 5883 5882 5881 5879 5877 5876 5875 5873 5872 5871 5870 5868 5867 5866 5865 5864 5863 5862 5860 5859 5858 5857 5855 5854 5852 5851 5850 5849 5847 5845 5844 5842 5840 5838 5837 5835
5891 5889 5888 5887 5885 5884 5882 5881 5880 5878 5876 5875 5873 5871 5870 5869 5867 5866 5864 5863 5862 5861 5859 5858 5857 5855 5854 5853 5851 5850 5848 5847 5845 5844 5843 5841 5839 5837 5836 5834 5832 5830 5828
5888 5887 5886 5884 5883 5881 5880 5878 5877 5875 5873 5871 5870 5868 5866 5865 5863 5862 5860 5859 5857 5856 5854 5853 5852 5850 5849 5847 5846 5844 5843 5841 5840 5838 5836 5835 5833 5831 5829 5827 5825 5824 5822
5887 5885 5883 5882 5880 5878 5876 5875 5873 5871 5869 5868 5866 5864 5862 5860 5859 5857 5855 5854 5852 5851 5849 5848 5846 5845 5843 5842 5840 5839 5837 5835 5834 5832 5830 5828 5826 5824 5822 5820 5818 5816 5814
5884 5882 5880 5878 5876 5874 5872 5871 5869 5867 5865 5863 5861 5859 5857 5856 5854 5852 5850 5849 5847 5845 5843 5842 5840 5839 5837 5836 5834 5833 5831 5829 5827 5825 5823 5821 5819 5817 5815 5812 5810 5808 5806
5880 5878 5876 5874 5872 5870 5868 5866 5863 5861 5860 5858 5856 5854 5853 5851 5849 5847 5845 5843 5841 5840 5838 5836 5834 5832 5831 5829 5828 5826 5824 5822 5820 5818 5816 5814 5812 5809 5806 5804 5802 5799 5797
5875 5873 5871 5869 5867 5865 5863 5860 5858 5856 5854 5852 5850 5849 5847 5845 5844 5841 5839 5838 5836 5834 5832 5830 5828 5826 5824 5823 5821 5819 5817 5815 5813 5811 5808 5806 5803 5801 5798 5796 5793 5790 5788
5870 5868 5866 5864 5862 5859 5857 5855 5853 5851 5849 5847 5845 5843 5841 5840 5838 5836 5834 5832 5830 5828 5826 5824 5822 5819 5817 5816 5814 5812 5810 5807 5805 5803 5800 5798 5795 5792 5789 5787 5784 5781 5778
5864 5862 5860 5859 5857 5854 5852 5849 5847 5845 5843 5841 5839 5837 5835 5834 5832 5830 5827 5825 5823 5822 5819 5817 5815 5813 5811 5809 5807 5804 5802 5799 5797 5794 5792 5789 5786 5783 5780 5777 5774 5771 5768
5857 5856 5854 5852 5850 5848 5846 5844 5841 5839 5837 5835 5833 5831 5829 5828 5826 5823 5821 5819 5817 5815 5813 5810 5808 5805 5803 5801 5799 5796 5794 5791 5788 5786 5783 5780 5777 5774 5771 5767 5764 5761 5758
5850 5848 5847 5845 5843 5841 5839 5837 5835 5833 5830 5829 5827 5825 5823 5822 5819 5817 5815 5812 5810 5808 5805 5803 5800 5798 5795 5793 5790 5787 5785 5782 5779 5776 5773 5770 5767 5764 5760 5757 5754 5751 5748
5841 5841 5839 5837 5836 5835 5833 5830 5828 5826 5824 5822 5821 5819 5817 5815 5812 5810 5807 5805 5803 5800 5797 5795 5793 5790 5787 5784 5781 5778 5775 5772 5769 5766 5763 5760 5757 5754 5750 5747 5744 5740 5737
5833 5832 5831 5830 5828 5827 5825 5823 5821 5819 5817 5815 5813 5811 5809 5807 5804 5802 5799 5797 5794 5792 5789 5787 5784 5781 5778 5775 5772 5769 5766 5763 5760 5756 5753 5750 5747 5744 5740 5737 5734 5730 5727
5824 5823 5822 5821 5820 5819 5817 5815 5814 5812 5809 5807 5805 5803 5801 5798 5796 5793 5790 5788 5785 5782 5780 5777 5774 5772 5769 5766 5763 5759 5756 5753 5750 5746 5743 5740 5737 5733 5730 5727 5723 5720 5717
5814 5813 5812 5812 5811 5809 5808 5806 5804 5803 5801 5798 5796 5794 5792 5789 5786 5784 5781 5778 5776 5773 5770 5767 5764 5762 5759 5756 5753 5749 5746 5743 5739 5736 5733 5730 5726 5723 5720 5717 5713 5710 5707
5805 5804 5803 5802 5801 5799 5798 5796 5795 5793 5791 5789 5787 5785 5782 5780 5777 5775 5771 5769 5766 5763 5760 5757 5754 5752 5749 5746 5742 5739 5736 5732 5729 5726 5723 5719 5716 5713 5709 5706 5703 5700 5697
5795 5794 5793 5792 5791 5789 5788 5786 5785 5783 5781 5779 5777 5775 5773 5770 5768 5765 5762 5759 5756 5754 5751 5748 5745 5741 5738 5735 5732 5729 5725 5722 5719 5715 5712 5709 5706 5702 5699 5696 5692 5689 5686
5785 5784 5783 5781 5780 5779 5777 5776 5774 5773 5771 5769 5767 5765 5762 5760 5758 5755 5752 5749 5746 5743 5741 5738 5734 5731 5728 5725 5722 5718 5715 5712 5709 5705 5702 5699 5695 5692 5689 5685 5682 5679 5676
5775 5773 5772 5771 5770 5769 5767 5766 5764 5762 5760 5759 5757 5755 5752 5750 5747 5745 5742 5739 5736 5733 5730 5727 5724 5720 5717 5714 5711 5708 5705 5702 5698 5695 5691 5688 5685 5682 5678 5675 5672 5668 5666
5764 5763 5762 5761 5760 5758 5757 5755 5753 5752 5750 5748 5746 5744 5741 5739 5736 5733 5731 5728 5725 5722 5719 5716 5713 5710 5707 5704 5700 5697 5694 5691 5687 5684 5681 5678 5675 5671 5668 5665 5662 5659 5656
5755 5754 5752 5751 5750 5748 5746 5744 5743 5741 5740 5737 5735 5733 5730 5728 5725 5723 5720 5717 5714 5711 5708 5705 5702 5699 5696 5692 5689 5686 5683 5680 5677 5674 5671 5668 5664 5661 5658 5655 5652 5649 5646
5745 5744 5743 5741 5740 5738 5736 5734 5732 5731 5729 5726 5724 5722 5719 5717 5715 5712 5709 5706 5703 5700 5698 5694 5691 5688 5684 5681 5679 5676 5673 5669 5666 5663 5660 5657 5654 5651 5648 5645 5642 5639 5636
5735 5734 5733 5731 5729 5728 5726 5724 5722 5720 5718 5716 5713 5711 5709 5706 5704 5701 5699 5696 5693 5690 5687 5684 5680 5677 5674 5671 5668 5665 5662 5659 5656 5653 5650 5647 5644 5642 5638 5635 5632 5629 5627